TimeAKDT,TemperatureF,Dew PointF,Humidity,Sea Level PressureIn,VisibilityMPH,Wind Direction,Wind SpeedMPH,Gust SpeedMPH,PrecipitationIn,Events,Conditions,WindDirDegrees,DateUTC
12:53 AM,57.0,55.0,93,30.07,10.0,NW,9.2,-,N/A,,Clear,310,2013-09-11 08:53:00
1:53 AM,57.0,55.0,93,30.06,10.0,WNW,6.9,-,N/A,,Clear,300,2013-09-11 09:53:00
2:53 AM,55.9,55.0,97,30.06,10.0,WNW,8.1,-,N/A,,Clear,300,2013-09-11 10:53:00
3:53 AM,55.9,55.0,97,30.05,10.0,WNW,8.1,-,N/A,,Clear,300,2013-09-11 11:53:00
4:53 AM,55.0,55.0,100,30.04,10.0,NW,9.2,-,N/A,,Clear,310,2013-09-11 12:53:00
5:53 AM,55.0,54.0,96,30.05,10.0,West,4.6,-,N/A,,Clear,280,2013-09-11 13:53:00
6:53 AM,55.0,54.0,96,30.04,10.0,WNW,6.9,-,N/A,,Clear,300,2013-09-11 14:53:00
7:53 AM,59.0,57.0,93,30.04,10.0,NW,10.4,-,N/A,,Clear,320,2013-09-11 15:53:00
8:53 AM,62.1,55.9,80,30.04,10.0,NW,11.5,-,N/A,,Clear,310,2013-09-11 16:53:00
9:53 AM,62.1,55.9,80,30.04,10.0,NW,11.5,-,N/A,,Clear,320,2013-09-11 17:53:00
10:53 AM,64.0,55.9,75,30.03,10.0,NW,11.5,-,N/A,,Clear,310,2013-09-11 18:53:00
11:53 AM,64.9,55.0,70,30.02,10.0,NW,12.7,-,N/A,,Clear,320,2013-09-11 19:53:00
12:53 PM,66.9,55.0,66,30.01,10.0,NW,10.4,-,N/A,,Clear,310,2013-09-11 20:53:00
1:53 PM,70.0,54.0,57,30.00,10.0,NW,11.5,-,N/A,,Clear,310,2013-09-11 21:53:00
2:53 PM,68.0,54.0,61,29.99,10.0,WNW,11.5,-,N/A,,Clear,300,2013-09-11 22:53:00
3:53 PM,68.0,55.0,63,29.98,10.0,WNW,11.5,-,N/A,,Clear,300,2013-09-11 23:53:00
4:53 PM,69.1,55.9,63,29.97,10.0,NW,11.5,-,N/A,,Clear,310,2013-09-12 00:53:00
5:53 PM,69.1,57.0,65,29.96,10.0,NW,10.4,-,N/A,,Clear,320,2013-09-12 01:53:00
6:53 PM,64.9,60.1,84,29.95,10.0,WNW,8.1,-,N/A,,Clear,300,2013-09-12 02:53:00
7:53 PM,64.0,61.0,90,29.95,10.0,WNW,8.1,-,N/A,,Clear,300,2013-09-12 03:53:00
8:53 PM,63.0,61.0,93,29.95,10.0,WNW,8.1,-,N/A,,Clear,290,2013-09-12 04:53:00
9:53 PM,62.1,61.0,96,29.95,10.0,WNW,8.1,-,N/A,,Clear,300,2013-09-12 05:53:00
10:53 PM,62.1,61.0,96,29.96,10.0,WNW,8.1,-,N/A,,Clear,290,2013-09-12 06:53:00
11:53 PM,61.0,61.0,100,29.96,10.0,WNW,10.4,-,N/A,,Clear,290,2013-09-12 07:53:00